Location: Newark
(43.4306°N, 0.3089°E)
Time: 08:22:52
(UTC+00:00)

Transit 2A Rocket - Pass Details

Date: 29 August 2019
Orbit: 592 x 911 km, 66.7° (Epoch: 19 September)

Event Time Altitude Azimuth Distance (km) Brightness Sun altitude
Rises 01:45:52 0° 333° (NNW) 3,008 8.5 -31.8°
Reaches altitude 10° 01:48:22 10° 341° (NNW) 2,047 7.6 -31.6°
Enters shadow 01:51:18 31° 11° (N) 1,098 6.2 -31.3°
